Flag for Germany Weather past 2 weeks in Neuruppin, Brandenburg, Germany

Now
59 °F

Passing clouds.


Feels Like: 58 °F
Forecast: 42 / 67 °F
Wind: 7 mph from West

Location: Neuruppin

Current Time: May 30, 2015 at 5:40:59 PM

Latest Report: May 30, 2015 at 5:00 PM


Visibility: 6 mi

Pressure: 29.88 "Hg

Humidity: 51%

Dew point: 41 °F

Location of NeuruppinLocation

Historic Weather in Neuruppin — Graph

°F

Neuruppin temperature yesterday

Maximum temperature yesterday: 64 °F (at 7:00 PM)
Minimum temperature yesterday: 48 °F (at 6:00 AM)
Average temperature yesterday: 56 °F

Past Weeks' High & Low Weather Summary

 TemperatureHumidityPressure
High70 °F (May 25, 2:00 PM)97% (May 21, 6:00 AM)30.32 "Hg (May 21, 6:00 AM)
Low38 °F (May 16, 6:00 AM)34% (May 22, 4:00 PM)29.58 "Hg (May 19, 3:00 AM)
Average54 °F70%30.01 "Hg
* Reported May 15 4:00 PM — May 30 4:00 PM, Neuruppin, Weather by CustomWeather, © 2015

Note: Actual official high and low records may vary slightly from our data, if they occured in-between our weather recording intervals... More about our weather records

Advertising

Neuruppin weather history for previous 24 hours

 ConditionsComfort  
Time TempWeatherWind HumidityBarometerVisibility
4:00 PM
Sat, May 30
57 °FPassing clouds.3 mph55%29.88 "Hg6 mi
3:00 PM51 °FOvercast.6 mph82%29.89 "Hg6 mi
2:00 PM59 °FScattered clouds.5 mph53%29.84 "Hg6 mi
1:00 PM58 °FPartly sunny.5 mph56%29.84 "Hg6 mi
12:00 PM56 °FPartly sunny.6 mph59%29.83 "Hg6 mi
11:00 AM53 °FPartly sunny.5 mph66%29.82 "Hg6 mi
10:00 AM52 °FOvercast.3 mph73%29.80 "Hg6 mi
9:00 AM51 °FOvercast.5 mph79%29.78 "Hg6 mi
8:00 AM49 °FOvercast.3 mph92%29.77 "Hg6 mi
7:00 AM48 °FLow clouds.3 mph95%29.76 "Hg6 mi
6:00 AM48 °FOvercast.2 mph94%29.74 "Hg6 mi
5:00 AM50 °FOvercast.8 mph85%29.72 "Hg6 mi
4:00 AM52 °FOvercast.2 mph88%29.69 "Hg6 mi
3:00 AM52 °FOvercast.2 mph88%29.69 "Hg6 mi
2:00 AM53 °FClear.2 mph87%29.71 "Hg6 mi
1:00 AM53 °FOvercast.1 mph91%29.70 "Hg6 mi
12:00 AM55 °FOvercast.2 mph84%29.72 "Hg6 mi
10:00 PM
Fri, May 29
61 °FOvercast.2 mph52%29.73 "Hg6 mi
9:00 PM61 °FOvercast.1 mph70%29.72 "Hg6 mi
8:00 PM63 °FScattered clouds.3 mph59%29.72 "Hg6 mi
7:00 PM64 °FScattered clouds.1 mph52%29.74 "Hg6 mi
6:00 PM63 °FSunny.3 mph52%29.75 "Hg6 mi
Weather by CustomWeather, © 2015

See weather overviewHow to use our weather pages